TimeMDT,TemperatureF,Dew PointF,Humidity,Sea Level PressureIn,VisibilityMPH,Wind Direction,Wind SpeedMPH,Gust SpeedMPH,PrecipitationIn,Events,Conditions,WindDirDegrees,DateUTC
12:53 AM,33.1,12.9,43,29.80,10.0,NW,12.7,20.7,N/A,,Clear,310,2013-03-18 06:53:00
1:53 AM,33.1,10.0,38,29.80,10.0,NNW,16.1,-,N/A,,Clear,330,2013-03-18 07:53:00
2:53 AM,32.0,9.0,38,29.83,10.0,NNW,12.7,-,N/A,,Clear,340,2013-03-18 08:53:00
3:53 AM,30.0,10.9,45,29.84,10.0,NNW,11.5,-,N/A,,Clear,340,2013-03-18 09:53:00
4:53 AM,28.9,10.9,47,29.85,10.0,WNW,6.9,-,N/A,,Clear,300,2013-03-18 10:53:00
5:53 AM,26.1,12.9,58,29.88,10.0,SE,4.6,-,N/A,,Partly Cloudy,140,2013-03-18 11:53:00
6:53 AM,23.0,12.9,65,29.93,10.0,SSW,4.6,-,N/A,,Scattered Clouds,200,2013-03-18 12:53:00
7:53 AM,26.1,14.0,60,29.96,10.0,SE,6.9,-,N/A,,Scattered Clouds,140,2013-03-18 13:53:00
8:53 AM,30.9,15.1,52,29.96,10.0,SE,11.5,-,N/A,,Scattered Clouds,140,2013-03-18 14:53:00
9:53 AM,35.1,12.0,39,29.94,10.0,SE,5.8,-,N/A,,Scattered Clouds,140,2013-03-18 15:53:00
10:53 AM,39.0,9.0,29,29.94,10.0,Variable,3.5,-,N/A,,Scattered Clouds,0,2013-03-18 16:53:00
11:53 AM,41.0,8.1,26,29.93,10.0,Calm,Calm,-,N/A,,Scattered Clouds,0,2013-03-18 17:53:00
12:53 PM,44.1,7.0,22,29.91,10.0,Calm,Calm,-,N/A,,Scattered Clouds,0,2013-03-18 18:53:00
1:53 PM,45.0,7.0,21,29.89,10.0,Variable,3.5,-,N/A,,Mostly Cloudy,0,2013-03-18 19:53:00
2:53 PM,48.0,7.0,19,29.84,10.0,WNW,15.0,27.6,N/A,,Scattered Clouds,300,2013-03-18 20:53:00
3:53 PM,48.9,8.1,19,29.85,10.0,NW,12.7,20.7,N/A,,Scattered Clouds,310,2013-03-18 21:53:00
4:53 PM,46.9,10.0,22,29.87,10.0,North,12.7,21.9,N/A,,Scattered Clouds,360,2013-03-18 22:53:00
5:53 PM,46.9,9.0,21,29.88,10.0,NW,6.9,19.6,N/A,,Scattered Clouds,320,2013-03-18 23:53:00
6:53 PM,45.0,7.0,21,29.92,10.0,WNW,11.5,17.3,N/A,,Scattered Clouds,290,2013-03-19 00:53:00
7:53 PM,43.0,7.0,23,29.93,10.0,WNW,8.1,-,N/A,,Scattered Clouds,290,2013-03-19 01:53:00
8:53 PM,39.0,10.0,30,29.94,10.0,WSW,9.2,-,N/A,,Scattered Clouds,250,2013-03-19 02:53:00
9:53 PM,37.9,12.0,35,29.93,10.0,West,5.8,-,N/A,,Partly Cloudy,260,2013-03-19 03:53:00
10:53 PM,39.0,15.1,38,29.94,10.0,WSW,11.5,-,N/A,,Partly Cloudy,250,2013-03-19 04:53:00
11:53 PM,39.9,18.0,41,29.93,10.0,West,10.4,-,N/A,,Scattered Clouds,260,2013-03-19 05:53:00